TimeAKDT,TemperatureF,Dew PointF,Humidity,Sea Level PressureIn,VisibilityMPH,Wind Direction,Wind SpeedMPH,Gust SpeedMPH,PrecipitationIn,Events,Conditions,WindDirDegrees,DateUTC
12:56 AM,39.9,32.0,73,29.95,10.0,East,4.6,-,N/A,,Clear,80,2013-08-25 08:56:00
1:56 AM,37.0,33.1,86,29.96,10.0,ENE,4.6,-,N/A,,Clear,70,2013-08-25 09:56:00
2:56 AM,36.0,30.0,79,29.95,10.0,East,5.8,-,0.00,,Clear,90,2013-08-25 10:56:00
3:56 AM,35.1,28.9,78,29.94,10.0,Calm,Calm,-,N/A,,Clear,0,2013-08-25 11:56:00
4:56 AM,33.1,28.9,85,29.94,10.0,ENE,3.5,-,N/A,,Clear,60,2013-08-25 12:56:00
5:56 AM,33.1,28.0,82,29.93,10.0,ENE,3.5,-,0.00,,Clear,60,2013-08-25 13:56:00
6:56 AM,33.1,28.9,85,29.92,10.0,Calm,Calm,-,N/A,,Clear,0,2013-08-25 14:56:00
7:56 AM,37.0,30.0,76,29.92,10.0,ENE,4.6,-,N/A,,Clear,60,2013-08-25 15:56:00
8:56 AM,41.0,30.9,67,29.91,10.0,NE,5.8,-,N/A,,Clear,50,2013-08-25 16:56:00
9:56 AM,46.0,32.0,58,29.90,10.0,ENE,5.8,-,N/A,,Clear,70,2013-08-25 17:56:00
10:56 AM,50.0,32.0,50,29.89,10.0,East,9.2,-,N/A,,Clear,90,2013-08-25 18:56:00
11:56 AM,53.1,32.0,45,29.87,10.0,ENE,6.9,-,N/A,,Clear,70,2013-08-25 19:56:00
12:56 PM,55.0,30.9,40,29.86,10.0,East,9.2,-,N/A,,Clear,80,2013-08-25 20:56:00
1:56 PM,57.0,27.0,32,29.84,10.0,East,8.1,-,N/A,,Clear,90,2013-08-25 21:56:00
2:56 PM,59.0,28.9,32,29.83,10.0,Variable,4.6,-,N/A,,Clear,0,2013-08-25 22:56:00
3:56 PM,60.1,28.0,30,29.80,10.0,SE,4.6,-,N/A,,Clear,140,2013-08-25 23:56:00
4:56 PM,61.0,28.0,29,29.78,10.0,ESE,6.9,-,N/A,,Clear,110,2013-08-26 00:56:00
5:56 PM,62.1,28.0,28,29.77,10.0,NE,5.8,-,N/A,,Clear,50,2013-08-26 01:56:00
6:56 PM,62.1,28.9,29,29.77,10.0,East,6.9,-,N/A,,Clear,100,2013-08-26 02:56:00
7:56 PM,61.0,30.0,31,29.76,10.0,NE,4.6,-,N/A,,Clear,50,2013-08-26 03:56:00
8:56 PM,57.0,32.0,39,29.76,10.0,NE,4.6,-,N/A,,Clear,50,2013-08-26 04:56:00
9:56 PM,51.1,30.9,46,29.78,10.0,ENE,5.8,-,N/A,,Clear,70,2013-08-26 05:56:00
10:56 PM,48.9,30.9,50,29.78,10.0,East,9.2,-,N/A,,Clear,80,2013-08-26 06:56:00
11:56 PM,46.9,32.0,56,29.79,10.0,East,9.2,-,N/A,,Clear,80,2013-08-26 07:56:00